"Pseudo-MPEC" for ZTF10B3

Created 2026 Feb 5 13:35:18 UT using Find_Orb

Click here for an explanation of pseudo-MPECs

 
 Astrometry: 
     ZTF10B3*0C2026 01 31.39248112 20 31.798+36 00 48.52   ~1VDK 15.81RUNEOCPI41
     ZTF10B3 0C2026 01 31.39282912 20 42.433+36 00 18.56   ~1VDK 15.81RUNEOCPI41
     ZTF10B3 0C2026 01 31.39295112 20 45.935+36 00 09.60   ~1VDK 15.82RUNEOCPI41
     ZTF10B3 0C2026 01 31.39329912 20 56.595+35 59 40.74   ~1VDK 15.82RUNEOCPI41

Station data:
(I41) Palomar Mountain--ZTF  (N33.357336 W116.859780)  US/California.
   Observers B. T. Bolin, Z. T. F. Collaboration. Measurers B. T. Bolin,
   Z.-Y. Lin, F. J. Masci. 1.2-m f/2.4 Schmidt.

Orbital elements:  ZTF10B3
   Perigee 2026 Jan 31.565394 +/- 26.1 TT = 13:34:10.0 (JD 2461072.065394)
Epoch 2026 Jan 31.0 TT = JDT 2461071.5                           AutoNEOCP
q319678.5964 +/- 3.28e+7            (J2000 equator)
H   27.67 G 0.15                    Peri.  126.852247 +/- 60
                                    Node    73.699233 +/- 70
e  48.55220593 +/- 0.239            Incl.   37.900029 +/- 18
From 4 observations 2026 Jan. 31 (70.7 sec); mean residual 0".69
Residuals in arcseconds: 
260131 I41  .10-  .38+    260131 I41  1.2-  .26+    
260131 I41  1.1+  .86-    260131 I41  .23+  .22+    

Ephemerides (geocentric):
Date (UTC) HH   RA             Dec           delta  r     elong  mag " sig PA
---- --------  ------------   ------------  ------ ------ -----  --- --------
2026 02 05 14  18 42 08.942   -19 17 10.02  .02255 .96797  36.6 26??  54d  67
2026 02 05 15  18 42 19.119   -19 18 39.46  .02274 .96783  36.6 26??  54d  67
2026 02 05 16  18 42 29.148   -19 20 07.41  .02292 .96769  36.6 26??  54d  67
2026 02 05 17  18 42 39.031   -19 21 33.91  .02311 .96755  36.6 26??  54d  67
2026 02 05 18  18 42 48.773   -19 22 59.01  .02329 .96741  36.6 26??  54d  67
2026 02 05 19  18 42 58.377   -19 24 22.72  .02348 .96727  36.6 26??  54d  67
2026 02 05 20  18 43 07.846   -19 25 45.09  .02367 .96713  36.6 26??  54d  67
2026 02 05 21  18 43 17.183   -19 27 06.15  .02385 .96700  36.6 26??  53d  67
2026 02 05 22  18 43 26.392   -19 28 25.92  .02404 .96686  36.6 26??  53d  67
2026 02 05 23  18 43 35.475   -19 29 44.43  .02422 .96672  36.7 26??  53d  67
2026 02 06 00  18 43 44.435   -19 31 01.72  .02441 .96658  36.7 26??  53d  67
2026 02 06 01  18 43 53.275   -19 32 17.82  .02459 .96644  36.7 26??  53d  67
2026 02 06 02  18 44 01.998   -19 33 32.75  .02478 .96630  36.7 26??  53d  67
2026 02 06 03  18 44 10.606   -19 34 46.53  .02497 .96616  36.7 26??  53d  67
2026 02 06 04  18 44 19.103   -19 35 59.19  .02515 .96602  36.7 26??  53d  67
2026 02 06 05  18 44 27.489   -19 37 10.76  .02534 .96589  36.7 26??  53d  67
2026 02 06 06  18 44 35.769   -19 38 21.26  .02552 .96575  36.7 26??  53d  67
2026 02 06 07  18 44 43.944   -19 39 30.72  .02571 .96561  36.7 26??  53d  67
2026 02 06 08  18 44 52.017   -19 40 39.15  .02590 .96547  36.7 26??  53d  67
2026 02 06 09  18 44 59.989   -19 41 46.58  .02608 .96534  36.7 26??  53d  67
2026 02 06 10  18 45 07.863   -19 42 53.03  .02627 .96520  36.8 26??  53d  67
2026 02 06 11  18 45 15.642   -19 43 58.53  .02646 .96506  36.8 26??  53d  67
2026 02 06 12  18 45 23.326   -19 45 03.08  .02664 .96492  36.8 26??  53d  67
2026 02 06 13  18 45 30.919   -19 46 06.71  .02683 .96479  36.8 26??  53d  67
2026 02 06 14  18 45 38.422   -19 47 09.45  .02701 .96465  36.8 26??  53d  67
2026 02 06 15  18 45 45.836   -19 48 11.30  .02720 .96451  36.8 26??  53d  67
2026 02 06 16  18 45 53.165   -19 49 12.29  .02739 .96438  36.8 26??  53d  67
2026 02 06 17  18 46 00.409   -19 50 12.43  .02757 .96424  36.8 26??  53d  67
2026 02 06 18  18 46 07.570   -19 51 11.75  .02776 .96411  36.9 27??  53d  67
2026 02 06 19  18 46 14.650   -19 52 10.25  .02795 .96397  36.9 27??  53d  67
2026 02 06 20  18 46 21.652   -19 53 07.96  .02813 .96383  36.9 27??  53d  67
2026 02 06 21  18 46 28.575   -19 54 04.88  .02832 .96370  36.9 27??  53d  67
2026 02 06 22  18 46 35.422   -19 55 01.05  .02850 .96356  36.9 27??  53d  68
2026 02 06 23  18 46 42.195   -19 55 56.46  .02869 .96343  36.9 27??  53d  68
2026 02 07 00  18 46 48.894   -19 56 51.13  .02888 .96329  36.9 27??  53d  68
2026 02 07 01  18 46 55.522   -19 57 45.09  .02906 .96316  37.0 27??  53d  68
2026 02 07 02  18 47 02.079   -19 58 38.34  .02925 .96302  37.0 27??  53d  68
2026 02 07 03  18 47 08.568   -19 59 30.89  .02944 .96289  37.0 27??  53d  68
2026 02 07 04  18 47 14.989   -20 00 22.76  .02962 .96276  37.0 27??  53d  69
2026 02 07 05  18 47 21.344   -20 01 13.96  .02981 .96262  37.0 27??  53d  69
2026 02 07 06  18 47 27.634   -20 02 04.51  .03000 .96249  37.0 27??  53d  69
2026 02 07 07  18 47 33.861   -20 02 54.42  .03018 .96235  37.1 27??  53d  69
2026 02 07 08  18 47 40.025   -20 03 43.69  .03037 .96222  37.1 27??  56d  68
2026 02 07 09  18 47 46.127   -20 04 32.34  .03056 .96209  37.1 27??  56d  68
2026 02 07 10  18 47 52.170   -20 05 20.39  .03074 .96195  37.1 27??  56d  68
2026 02 07 11  18 47 58.154   -20 06 07.83  .03093 .96182  37.1 27??  55d  68
2026 02 07 12  18 48 04.079   -20 06 54.69  .03112 .96169  37.2 27??  55d  67
2026 02 07 13  18 48 09.948   -20 07 40.97  .03130 .96155  37.2 27??  55d  67